Location: Bryzozowice
(50.3667°N, 18.9667°E)
Time: 12:05:21
(UTC+00:00)

ATLAS 5 CENTAUR R/B - Pass Details

Date: 24 January 2020
Orbit: 283 x 14331 km, 60.7° (Epoch: 27 February)

Event Time Altitude Azimuth Distance (km) Brightness Sun altitude
Rises 17:14:27 0° 311° (NW) 2,566 5.8 -17.5°
Reaches altitude 10° 17:15:51 10° 318° (NW) 1,975 5.1 -17.8°
Maximum altitude 17:19:49 53° 37° (NE) 1,331 3.4 -18.4°
Enters shadow 17:27:27 21° 106° (ESE) 4,142 5.7 -19.6°
